Location: *
(49.0404°S, 178.0580°W)
Time: 21:44:52
(UTC+00:00)

Daily predictions for brighter satellites

Satellite Brightness Start Highest point End
(mag) Time Altitude Azimuth Time Altitude Azimuth Time Altitude Azimuth
Cosmos 2263 Rocket 4.4 15:22:53 20° E 15:22:53 20° E 15:24:54 10° ENE
Cosmos 1980 Rocket 3.9 15:35:06 29° ESE 15:35:06 29° ESE 15:38:46 10° SE
SL-16 R/B 4.5 15:47:53 10° S 15:49:28 19° S 15:49:28 19° S
SeaSat 1 3.4 16:09:54 10° NE 16:14:03 45° ESE 16:14:03 45° ESE
S3M 4.2 16:17:53 37° S 16:20:27 68° ESE 16:26:43 10° NNE
SL-16 R/B 4.5 16:21:01 10° NNE 16:25:20 23° ENE 16:29:42 10° SE
USA 234 3.1 16:19:19 10° SE 16:25:58 86° SSW 16:26:20 81° W
Cosmos 1697 Rocket 3.9 16:30:03 32° S 16:30:03 32° S 16:33:11 10° SSE
Cosmos 2266 Rocket 4.1 16:30:50 10° N 16:36:53 69° E 16:42:59 10° SSE
Cosmos 1844 Rocket 4.1 16:38:48 21° S 16:41:43 33° SE 16:46:45 10° ENE
Cosmos 1417 Rocket 4.4 16:41:05 68° SW 16:41:43 74° W 16:48:06 10° N
Blok-L 3.9 16:42:20 73° ENE 16:42:20 73° ENE 16:49:05 10° NE
SMAP 3.9 16:37:42 10° NE 16:42:13 49° ESE 16:44:17 29° SSE
Cosmos 839 Rocket 4.5 16:42:54 56° WSW 16:43:26 57° SW 16:50:10 10° SSE
Exosat Rocket 4.0 16:42:08 44° S 16:43:31 59° ESE 16:49:08 10° NE
Blok-ML 4.4 16:53:40 72° SSW 16:54:02 81° SE 17:05:40 10° NE
SJ-11-01 4.5 16:49:47 10° NNE 16:54:29 70° ESE 16:56:12 39° S
Cosmos 2369 3.6 16:58:24 65° W 16:58:45 67° WSW 17:04:30 10° SSE
BREEZE-M DEB (TANK) 3.0 17:00:04 43° ENE 17:00:04 43° ENE 17:01:43 10° E
DNEPR-1 R/B 3.6 17:02:35 60° SSE 17:02:49 62° SE 17:06:58 10° NE
Cosmos 2263 Rocket 2.5 17:04:38 46° NW 17:04:38 46° NW 17:09:17 10° N
Cosmos 2278 3.8 17:02:43 10° NNW 17:08:25 77° ENE 17:14:11 10° SSE
Genesis I 4.3 17:11:30 33° N 17:11:30 33° N 17:13:51 10° NNE
ARGOS 3.1 17:06:01 10° N 17:11:25 61° W 17:13:07 42° SW
Cosmos 883 Rocket 4.3 17:07:00 10° SSW 17:13:12 72° W 17:19:19 10° N
Cosmos 1544 4.4 17:13:48 19° SSE 17:15:45 36° ESE 17:18:57 10° NE
Cosmos 1992 Rocket 4.5 17:13:05 19° SSW 17:16:46 60° ESE 17:21:57 10° NE
Cosmos 1980 Rocket 2.4 17:16:55 46° WSW 17:17:31 48° SW 17:23:06 10° SSE
CBERS 1 LM4 rocket 4.4 17:14:07 10° NNE 17:18:59 78° ESE 17:23:03 15° SSW
Cosmos 1666 4.0 17:16:51 12° S 17:20:02 38° ESE 17:23:30 10° NE
SL-24 R/B 4.4 17:16:08 10° NNE 17:20:47 89° ESE 17:26:19 10° SSW
AQUARIUS 4.0 17:23:55 10° N 17:28:26 80° WNW 17:31:36 20° SSW
Cosmos 2315 Rocket 3.9 17:23:51 10° SSW 17:30:03 62° W 17:36:11 10° N
Cosmos 967 Rocket 4.5 17:26:53 23° WNW 17:30:59 64° SW 17:37:27 10° SE
CZ-2C R/B 4.1 17:26:41 10° S 17:28:52 20° SSW 17:28:52 20° SSW
ISS -3.9 17:34:51 71° W 17:35:11 85° NNW 17:38:37 10° ENE
BREEZE-M DEB (TANK) 2.0 17:35:26 46° N 17:35:35 47° NNE 17:38:36 10° E
SL-16 R/B 4.3 17:33:05 10° SSW 17:34:33 13° SSW 17:34:33 13° SSW
CZ-4B R/B 3.8 17:32:46 10° N 17:37:41 43° W 17:39:40 30° SW
Timation 2 Rocket 3.9 17:35:22 25° SW 17:38:53 61° WNW 17:45:02 10° NNE
SL-08 RB Rocket 4.1 17:37:22 10° NNW 17:41:36 39° W 17:42:34 35° WSW
Cosmos 1242 Rocket 2.5 17:43:59 49° W 17:44:11 50° W 17:47:30 10° N
Cosmos 2237 4.4 17:39:29 10° NNW 17:45:12 76° ENE 17:51:01 10° SSE
Cosmos 1655 Rocket 4.2 17:39:30 10° NNW 17:45:32 49° WSW 17:51:41 10° S
Cosmos 1602 3.5 17:44:57 14° S 17:48:09 86° W 17:51:56 10° N
Cosmos 1782 4.5 17:47:41 10° NNE 17:51:19 36° E 17:55:00 10° SSE
Meteor 1-31 Rocket 4.5 17:48:14 10° NNW 17:49:42 18° NW 17:49:42 18° NW
SeaSat 1 3.2 17:47:52 10° N 17:52:16 31° WNW 17:53:48 26° WSW
Cosmos 1818 3.7 17:49:20 20° WNW 17:52:56 51° SW 17:58:15 10° SSE
Cosmos 1461 2.6 17:51:10 28° SW 17:53:06 89° ESE 17:57:05 10° NE
CORIOLIS 4.4 17:48:13 10° N 17:53:24 47° W 17:58:40 10° SSW
Cosmos 1766 Rocket 4.3 17:49:07 10° S 17:53:36 55° ESE 17:57:59 10° NNE
Meteor PRIRODA 3.5 17:50:00 10° N 17:53:38 79° WNW 17:56:47 14° SSW
NOAA 6 4.0 17:50:54 10° NNE 17:56:06 79° WNW 18:01:21 10° SSW
Cosmos 44 3.5 17:54:38 29° WSW 17:56:09 39° WNW 18:00:08 10° N
Helios 1A 3.9 17:54:09 10° S 17:57:32 27° WSW 17:57:32 27° WSW
Meteor 1-20 Rocket 4.2 17:55:52 10° SSW 18:01:35 81° W 18:07:20 10° N
Cosmos 1500 3.4 18:01:15 19° SSW 18:03:35 44° W 18:07:06 10° NNW
Meteor 1-25 Rocket 4.2 18:01:55 10° SSW 18:07:40 83° W 18:13:16 10° N
USA 234 3.6 18:02:20 10° ESE 18:08:40 49° SSW 18:13:41 16° W
SL-16 R/B 2.2 18:03:14 10° NW 18:08:55 68° WSW 18:14:40 10° SSE
CZ-4B R/B 3.0 18:07:59 10° N 18:12:15 74° WNW 18:16:45 10° SSW
Cosmos 2322 Rocket 2.2 18:06:37 10° NNW 18:12:16 87° WSW 18:18:00 10° SSE
Cosmos 1697 Rocket 4.3 18:11:49 15° SW 18:12:50 16° SSW 18:16:14 10° S
Cosmos 1844 3.7 18:07:42 11° SSW 18:13:25 73° WNW 18:19:11 10° NNE
Okean O Rocket 3.7 18:10:43 10° ENE 18:14:22 26° ESE 18:18:02 10° S
DELTA 2 DEB (DPAF) 4.1 18:14:41 10° SSE 18:19:09 87° ENE 18:23:32 10° NNW
Cosmos 2360 Rocket 2.4 18:13:47 10° NNW 18:19:26 78° ENE 18:25:11 10° SSE
SMAP 4.2 18:16:04 10° NW 18:19:48 23° W 18:22:45 14° SW
Cosmos 2221 2.8 18:18:53 10° N 18:23:15 75° E 18:27:38 10° SSE
Cosmos 1844 Rocket 2.9 18:20:29 10° SW 18:25:50 51° WNW 18:31:13 10° N
Cosmos 2333 Rocket 2.6 18:25:48 10° NNW 18:31:25 69° ENE 18:37:08 10° SSE
COSMO-SKYMED 1 2.6 18:27:42 10° S 18:32:06 62° WSW 18:36:26 10° NNW
Cosmos 1269 Rocket 4.2 18:28:41 10° NW 18:33:54 52° WSW 18:39:10 10° SSE
SL-4 R/B 3.1 18:29:55 10° NW 18:34:18 53° NNE 18:38:53 10° ESE
Cosmos-2242 4.0 18:30:50 10° NW 18:34:32 26° WSW 18:38:16 10° SSW
Cosmos 1933 3.3 18:31:39 10° NNW 18:35:44 75° W 18:39:53 10° S
Cosmos 2219 Rocket 2.9 18:38:02 10° N 18:43:33 59° ENE 18:49:07 10° SE
USA 81 4.1 18:38:16 10° SSW 18:43:33 62° W 18:48:46 10° N
ADEOS 4.3 18:39:42 10° NNW 18:44:25 33° W 18:49:12 10° SSW
Cosmos 1812 3.1 18:41:52 10° NNW 18:45:27 40° WSW 18:49:07 10° S
Landsat 4 4.4 18:44:11 10° NNW 18:47:35 34° W 18:51:01 10° SSW
CZ-4B R/B 3.5 18:45:39 10° NNE 18:51:21 80° ESE 18:57:02 10° SSW
CZ-4 R/B 1.6 18:49:45 10° NNE 18:53:45 76° ESE 18:57:55 10° S
Cosmos 1666 4.2 18:52:15 10° SW 18:54:47 17° W 18:57:17 10° NW
Meteor 2-20 4.5 18:48:39 10° SSW 18:54:49 77° W 19:00:57 10° N
Cosmos 1500 Rocket 4.1 18:53:21 10° S 18:57:46 64° ESE 19:02:10 10° NNE
NOSS 3-3 (A) 3.9 18:51:46 10° SW 18:58:26 85° NW 19:04:04 10° NE
NOSS 3-3 (C) 3.9 18:51:51 10° SW 18:58:31 85° NW 19:04:10 10° NE
Cosmos 1745 Rocket 4.0 18:52:55 10° NNW 18:59:01 62° WSW 19:05:12 10° S
PSLV R/B 3.8 18:56:31 10° N 19:00:23 70° WNW 19:04:14 10° SSW
Cosmos 1709 Rocket 4.0 18:56:01 10° N 19:02:12 86° W 19:08:30 10° S
